RYR104A ESSA-EPWR

Flight info

Callsign RYR104A
Flight time 1h 32m
Altitude 36000
Route NOSLI N850 ABAMA DCT ETRUS DCT GORPI DCT ADVAB L617 XIDNA
Aircraft B738/M-SDE3FGILRWY/SB1

Departure

Time 2026-05-01 09:09
Airport Stockholm-Arlanda Airport (ESSA)

Arrival

Time 2026-05-01 10:41
Airport Copernicus Wrocław Airport (EPWR)
Time Latitude Longitude Altitude Speed Heading
2026-05-01 08:47 59.65356 17.93550 120 ft 0 kts 75°
2026-05-01 08:58 59.65353 17.93527 120 ft 2 kts 75°
2026-05-01 08:59 59.65349 17.93498 120 ft 2 kts 75°
2026-05-01 08:59 59.65345 17.93469 120 ft 2 kts 75°
2026-05-01 08:59 59.65343 17.93451 119 ft 2 kts 69°
2026-05-01 08:59 59.65334 17.93427 119 ft 2 kts 37°
2026-05-01 09:00 59.65320 17.93414 119 ft 2 kts 11°
2026-05-01 09:00 59.65308 17.93413 119 ft 0 kts 349°
2026-05-01 09:00 59.65301 17.93417 119 ft 1 kts 346°
2026-05-01 09:00 59.65300 17.93417 119 ft 0 kts 346°
2026-05-01 09:03 59.65316 17.93409 119 ft 6 kts 346°
2026-05-01 09:03 59.65377 17.93380 117 ft 10 kts 346°
2026-05-01 09:03 59.65449 17.93346 115 ft 11 kts 347°
2026-05-01 09:04 59.65522 17.93306 114 ft 8 kts 288°
2026-05-01 09:04 59.65518 17.93172 114 ft 12 kts 256°
2026-05-01 09:04 59.65483 17.92967 113 ft 18 kts 251°
2026-05-01 09:04 59.65438 17.92727 109 ft 15 kts 245°
2026-05-01 09:05 59.65471 17.92582 107 ft 12 kts 327°
2026-05-01 09:05 59.65588 17.92499 109 ft 20 kts 346°
2026-05-01 09:05 59.65713 17.92437 113 ft 16 kts 345°
2026-05-01 09:05 59.65828 17.92447 115 ft 18 kts 11°
2026-05-01 09:06 59.65968 17.92497 117 ft 21 kts
2026-05-01 09:06 59.66106 17.92542 122 ft 17 kts 10°
2026-05-01 09:06 59.66221 17.92583 127 ft 17 kts 11°
2026-05-01 09:06 59.66340 17.92627 130 ft 19 kts 11°
2026-05-01 09:07 59.66457 17.92650 135 ft 14 kts 353°
2026-05-01 09:07 59.66544 17.92597 136 ft 14 kts 340°
2026-05-01 09:07 59.66617 17.92473 135 ft 14 kts 277°
2026-05-01 09:07 59.66585 17.92355 132 ft 10 kts 190°
2026-05-01 09:08 59.66563 17.92349 132 ft 1 kts 189°
2026-05-01 09:08 59.66409 17.92293 129 ft 61 kts 191°
2026-05-01 09:08 59.65715 17.92044 115 ft 138 kts 191°
2026-05-01 09:08 59.64602 17.91649 327 ft 181 kts 190°
2026-05-01 09:09 59.63397 17.91231 1314 ft 180 kts 192°
2026-05-01 09:09 59.62192 17.90788 2044 ft 185 kts 193°
2026-05-01 09:09 59.60945 17.90049 2458 ft 197 kts 208°
2026-05-01 09:09 59.59875 17.88482 3182 ft 191 kts 231°
2026-05-01 09:10 59.59202 17.86279 3780 ft 193 kts 249°
2026-05-01 09:10 59.58714 17.83763 4324 ft 199 kts 254°
2026-05-01 09:10 59.58351 17.81208 5055 ft 195 kts 257°
2026-05-01 09:10 59.57878 17.78731 5650 ft 200 kts 249°
2026-05-01 09:11 59.57216 17.76058 5857 ft 228 kts 244°
2026-05-01 09:11 59.56251 17.73634 6668 ft 229 kts 228°
2026-05-01 09:11 59.55028 17.71664 7425 ft 232 kts 220°
2026-05-01 09:11 59.53609 17.69966 7848 ft 251 kts 212°
2026-05-01 09:12 59.51894 17.68532 8130 ft 275 kts 205°
2026-05-01 09:12 59.50094 17.67187 8751 ft 283 kts 207°
2026-05-01 09:12 59.48284 17.65630 9371 ft 289 kts 210°
2026-05-01 09:12 59.46483 17.63917 10203 ft 287 kts 212°
2026-05-01 09:13 59.44751 17.62108 11058 ft 284 kts 215°
2026-05-01 09:13 59.42972 17.60188 11329 ft 306 kts 212°
2026-05-01 09:13 59.41069 17.58334 11794 ft 319 kts 211°
2026-05-01 09:13 59.39032 17.56413 12190 ft 334 kts 211°
2026-05-01 09:14 59.36887 17.54379 12533 ft 351 kts 211°
2026-05-01 09:14 59.34679 17.52264 13203 ft 356 kts 211°
2026-05-01 09:14 59.32446 17.50110 13931 ft 360 kts 212°
2026-05-01 09:14 59.30209 17.47941 14693 ft 363 kts 212°
2026-05-01 09:15 59.27947 17.45743 15434 ft 367 kts 212°
2026-05-01 09:15 59.25656 17.43519 16200 ft 371 kts 212°
2026-05-01 09:15 59.23335 17.41269 16922 ft 375 kts 212°
2026-05-01 09:15 59.21011 17.39021 17611 ft 379 kts 212°
2026-05-01 09:16 59.18621 17.36712 18352 ft 382 kts 212°
2026-05-01 09:16 59.16246 17.34421 18961 ft 388 kts 211°
2026-05-01 09:16 59.13839 17.32102 19618 ft 392 kts 211°
2026-05-01 09:17 59.08938 17.27305 20933 ft 398 kts 213°
2026-05-01 09:17 59.06576 17.24547 21526 ft 400 kts 219°
2026-05-01 09:17 59.02180 17.18000 22736 ft 403 kts 224°
2026-05-01 09:18 59.00019 17.14467 23371 ft 406 kts 225°
2026-05-01 09:18 58.95716 17.07363 24544 ft 413 kts 225°
2026-05-01 09:19 58.91296 17.00159 25598 ft 420 kts 224°
2026-05-01 09:19 58.89083 16.96589 26153 ft 422 kts 224°
2026-05-01 09:19 58.86813 16.92945 26595 ft 427 kts 224°
2026-05-01 09:20 58.82200 16.85583 27560 ft 433 kts 224°
2026-05-01 09:20 58.77542 16.78189 28444 ft 440 kts 223°
2026-05-01 09:21 58.72777 16.70655 29333 ft 446 kts 223°
2026-05-01 09:21 58.70392 16.66896 29787 ft 448 kts 223°
2026-05-01 09:21 58.65609 16.59390 31049 ft 443 kts 223°
2026-05-01 09:22 58.60826 16.51907 32038 ft 443 kts 223°
2026-05-01 09:22 58.56078 16.44502 33048 ft 441 kts 223°
2026-05-01 09:23 58.53724 16.40840 33485 ft 440 kts 223°
2026-05-01 09:23 58.49059 16.33606 34402 ft 438 kts 222°
2026-05-01 09:24 58.44289 16.26228 35210 ft 437 kts 222°
2026-05-01 09:24 58.41947 16.22617 35644 ft 434 kts 222°
2026-05-01 09:24 58.37277 16.15439 36202 ft 436 kts 222°
2026-05-01 09:25 58.32587 16.08252 36227 ft 434 kts 222°
2026-05-01 09:26 58.25598 15.97583 36232 ft 434 kts 222°
2026-05-01 09:26 58.18589 15.86933 36233 ft 434 kts 222°
2026-05-01 09:27 58.11541 15.76291 36240 ft 434 kts 221°
2026-05-01 09:28 58.06852 15.69242 36240 ft 433 kts 221°
2026-05-01 09:28 58.02113 15.62364 36242 ft 436 kts 217°
2026-05-01 09:28 57.99494 15.59537 36241 ft 439 kts 206°
2026-05-01 09:29 57.93497 15.57113 36248 ft 444 kts 184°
2026-05-01 09:30 57.84294 15.57131 36252 ft 445 kts 180°
2026-05-01 09:30 57.75039 15.57530 36258 ft 447 kts 180°
2026-05-01 09:31 57.68842 15.57752 36259 ft 447 kts 180°
2026-05-01 09:32 57.59563 15.58031 36264 ft 447 kts 180°
2026-05-01 09:32 57.50253 15.58289 36269 ft 447 kts 180°
2026-05-01 09:33 57.44038 15.58457 36271 ft 447 kts 180°
2026-05-01 09:34 57.34759 15.58707 36268 ft 449 kts 180°
2026-05-01 09:34 57.25413 15.58956 36274 ft 447 kts 180°
2026-05-01 09:35 57.16099 15.59200 36284 ft 447 kts 180°
2026-05-01 09:36 57.09894 15.59365 36284 ft 447 kts 180°
2026-05-01 09:36 57.03681 15.59529 36282 ft 448 kts 180°
2026-05-01 09:37 56.97510 15.59692 36291 ft 447 kts 180°
2026-05-01 09:37 56.88168 15.59937 36297 ft 448 kts 179°
2026-05-01 09:38 56.78842 15.60181 36298 ft 447 kts 179°
2026-05-01 09:39 56.69537 15.60420 36299 ft 447 kts 179°
2026-05-01 09:39 56.63352 15.60577 36300 ft 447 kts 179°
2026-05-01 09:40 56.54148 15.60811 36296 ft 448 kts 179°
2026-05-01 09:41 56.48032 15.60967 36297 ft 448 kts 179°
2026-05-01 09:41 56.39153 15.61194 36303 ft 447 kts 179°
2026-05-01 09:42 56.32619 15.61361 36306 ft 448 kts 179°
2026-05-01 09:43 56.20679 15.61663 36307 ft 447 kts 179°
2026-05-01 09:43 56.14471 15.61819 36315 ft 449 kts 179°
2026-05-01 09:44 56.05305 15.62045 36320 ft 446 kts 179°
2026-05-01 09:45 55.99203 15.62197 36324 ft 447 kts 179°
2026-05-01 09:45 55.89967 15.62427 36330 ft 447 kts 179°
2026-05-01 09:46 55.83762 15.62580 36332 ft 448 kts 179°
2026-05-01 09:46 55.77554 15.62732 36331 ft 448 kts 179°
2026-05-01 09:47 55.71356 15.62885 36335 ft 448 kts 179°
2026-05-01 09:47 55.65164 15.63036 36339 ft 447 kts 179°
2026-05-01 09:48 55.58936 15.63187 36338 ft 447 kts 179°
2026-05-01 09:48 55.52735 15.63337 36345 ft 448 kts 179°
2026-05-01 09:49 55.46519 15.63489 36348 ft 448 kts 179°
2026-05-01 09:49 55.40340 15.63690 36356 ft 448 kts 178°
2026-05-01 09:50 55.34139 15.63931 36360 ft 447 kts 178°
2026-05-01 09:50 55.27959 15.64169 36366 ft 447 kts 178°
2026-05-01 09:51 55.21719 15.64402 36364 ft 448 kts 178°
2026-05-01 09:51 55.15523 15.64631 36367 ft 448 kts 178°
2026-05-01 09:52 55.09369 15.64857 36366 ft 448 kts 178°
2026-05-01 09:52 55.03148 15.65082 36363 ft 449 kts 178°
2026-05-01 09:53 54.96921 15.65306 36365 ft 448 kts 178°
2026-05-01 09:53 54.90719 15.65961 36367 ft 447 kts 171°
2026-05-01 09:54 54.84732 15.67963 36365 ft 446 kts 165°
2026-05-01 09:54 54.78887 15.70453 36364 ft 446 kts 164°
2026-05-01 09:55 54.72934 15.73030 36365 ft 447 kts 164°
2026-05-01 09:55 54.67011 15.75525 36363 ft 446 kts 165°
2026-05-01 09:56 54.61057 15.77980 36360 ft 446 kts 165°
2026-05-01 09:56 54.55035 15.80434 36361 ft 446 kts 165°
2026-05-01 09:57 54.48984 15.82882 36362 ft 446 kts 165°
2026-05-01 09:57 54.43002 15.85291 36362 ft 445 kts 165°
2026-05-01 09:58 54.37038 15.87684 36361 ft 447 kts 165°
2026-05-01 09:58 54.31011 15.90095 36360 ft 446 kts 165°
2026-05-01 09:59 54.24966 15.92507 36361 ft 447 kts 165°
2026-05-01 09:59 54.18927 15.94909 36360 ft 447 kts 165°
2026-05-01 10:00 54.12854 15.97317 36366 ft 446 kts 165°
2026-05-01 10:00 54.06864 15.99682 36375 ft 446 kts 165°
2026-05-01 10:01 54.00971 16.02002 36377 ft 446 kts 165°
2026-05-01 10:01 53.95123 16.04302 36374 ft 447 kts 165°
2026-05-01 10:02 53.89405 16.06547 36375 ft 447 kts 164°
2026-05-01 10:02 53.83391 16.08899 36374 ft 447 kts 164°
2026-05-01 10:03 53.77580 16.11162 36371 ft 447 kts 164°
2026-05-01 10:03 53.71624 16.13475 36369 ft 447 kts 164°
2026-05-01 10:04 53.65843 16.15717 36365 ft 447 kts 164°
2026-05-01 10:04 53.59808 16.18051 36355 ft 447 kts 164°
2026-05-01 10:05 53.53933 16.20314 36064 ft 451 kts 164°
2026-05-01 10:05 53.50945 16.21465 35828 ft 451 kts 164°
2026-05-01 10:05 53.47951 16.22614 35587 ft 448 kts 164°
2026-05-01 10:06 53.44986 16.23749 35344 ft 446 kts 164°
2026-05-01 10:06 53.42045 16.24871 35105 ft 444 kts 164°
2026-05-01 10:06 53.39084 16.26001 34838 ft 443 kts 164°
2026-05-01 10:06 53.36086 16.27143 34498 ft 437 kts 164°
2026-05-01 10:07 53.33218 16.28233 34161 ft 431 kts 164°
2026-05-01 10:07 53.30381 16.29312 33826 ft 425 kts 163°
2026-05-01 10:07 53.27512 16.30399 33480 ft 419 kts 163°
2026-05-01 10:07 53.24766 16.31438 33146 ft 415 kts 163°
2026-05-01 10:08 53.19640 16.33380 32527 ft 414 kts 163°
2026-05-01 10:08 53.16669 16.34504 32165 ft 412 kts 163°
2026-05-01 10:08 53.14037 16.35497 31844 ft 410 kts 163°
2026-05-01 10:09 53.11383 16.36496 31519 ft 407 kts 162°
2026-05-01 10:09 53.08631 16.37533 31181 ft 405 kts 162°
2026-05-01 10:09 53.05903 16.38560 30846 ft 403 kts 162°
2026-05-01 10:09 53.03433 16.39489 30541 ft 402 kts 162°
2026-05-01 10:10 53.00642 16.40538 30185 ft 401 kts 162°
2026-05-01 10:10 52.98010 16.41526 29850 ft 399 kts 162°
2026-05-01 10:10 52.92802 16.43473 29180 ft 394 kts 162°
2026-05-01 10:11 52.90123 16.44471 28834 ft 392 kts 162°
2026-05-01 10:11 52.87844 16.45322 28550 ft 391 kts 162°
2026-05-01 10:11 52.85238 16.46295 28236 ft 389 kts 162°
2026-05-01 10:11 52.82821 16.47196 27942 ft 387 kts 162°
2026-05-01 10:12 52.79966 16.48257 27600 ft 386 kts 162°
2026-05-01 10:12 52.77430 16.49198 27296 ft 384 kts 161°
2026-05-01 10:12 52.72307 16.51094 26671 ft 381 kts 161°
2026-05-01 10:13 52.69785 16.52026 26364 ft 380 kts 161°
2026-05-01 10:13 52.67287 16.52949 26059 ft 378 kts 161°
2026-05-01 10:13 52.64755 16.53883 25745 ft 376 kts 161°
2026-05-01 10:14 52.59734 16.55729 25124 ft 373 kts 161°
2026-05-01 10:14 52.57404 16.56584 24824 ft 371 kts 161°
2026-05-01 10:14 52.54927 16.57492 24504 ft 369 kts 161°
2026-05-01 10:14 52.52435 16.58404 24189 ft 367 kts 161°
2026-05-01 10:15 52.50061 16.59273 23886 ft 367 kts 161°
2026-05-01 10:15 52.48062 16.60006 23626 ft 365 kts 161°
2026-05-01 10:15 52.45402 16.60979 23277 ft 363 kts 161°
2026-05-01 10:15 52.42845 16.61912 22945 ft 360 kts 161°
2026-05-01 10:16 52.40436 16.62791 22627 ft 359 kts 161°
2026-05-01 10:16 52.38367 16.63545 22353 ft 357 kts 161°
2026-05-01 10:16 52.33433 16.65341 21702 ft 353 kts 161°
2026-05-01 10:17 52.31078 16.66195 21389 ft 353 kts 161°
2026-05-01 10:17 52.26331 16.67916 20759 ft 349 kts 161°
2026-05-01 10:17 52.23983 16.68767 20449 ft 348 kts 161°
2026-05-01 10:18 52.19276 16.70466 19810 ft 346 kts 161°
2026-05-01 10:18 52.16953 16.71304 19504 ft 343 kts 161°
2026-05-01 10:18 52.14632 16.72143 19203 ft 340 kts 161°
2026-05-01 10:19 52.12410 16.73084 18951 ft 336 kts 156°
2026-05-01 10:19 52.10305 16.74265 18705 ft 334 kts 152°
2026-05-01 10:19 52.08125 16.75662 18446 ft 331 kts 151°
2026-05-01 10:20 52.03944 16.78432 17943 ft 326 kts 151°
2026-05-01 10:20 52.01860 16.79781 17690 ft 325 kts 151°
2026-05-01 10:20 51.99783 16.81104 17441 ft 325 kts 152°
2026-05-01 10:20 51.97681 16.82431 17190 ft 325 kts 152°
2026-05-01 10:21 51.95571 16.83757 16934 ft 323 kts 152°
2026-05-01 10:21 51.91415 16.86366 16436 ft 320 kts 152°
2026-05-01 10:21 51.89355 16.87659 16181 ft 318 kts 152°
2026-05-01 10:22 51.85370 16.90154 15699 ft 316 kts 152°
2026-05-01 10:22 51.81414 16.92629 15213 ft 314 kts 152°
2026-05-01 10:23 51.79356 16.93914 14957 ft 313 kts 152°
2026-05-01 10:23 51.75444 16.96353 14467 ft 310 kts 152°
2026-05-01 10:23 51.73442 16.97599 14217 ft 309 kts 152°
2026-05-01 10:24 51.69501 17.00046 13715 ft 306 kts 152°
2026-05-01 10:24 51.65586 17.02384 13250 ft 305 kts 153°
2026-05-01 10:25 51.61667 17.04691 12783 ft 303 kts 153°
2026-05-01 10:25 51.57848 17.06951 12322 ft 301 kts 153°
2026-05-01 10:26 51.55893 17.08108 12084 ft 300 kts 153°
2026-05-01 10:26 51.53986 17.09235 11852 ft 299 kts 153°
2026-05-01 10:26 51.50154 17.11496 11387 ft 296 kts 154°
2026-05-01 10:27 51.46299 17.13767 10958 ft 294 kts 154°
2026-05-01 10:27 51.42592 17.15947 10571 ft 292 kts 154°
2026-05-01 10:28 51.40692 17.17063 10373 ft 291 kts 154°
2026-05-01 10:28 51.36904 17.19285 9974 ft 290 kts 154°
2026-05-01 10:28 51.35025 17.20386 9776 ft 289 kts 154°
2026-05-01 10:29 51.31265 17.22587 9374 ft 287 kts 154°
2026-05-01 10:29 51.29448 17.23647 9187 ft 287 kts 154°
2026-05-01 10:30 51.25711 17.25825 8791 ft 285 kts 155°
2026-05-01 10:30 51.22049 17.27957 8391 ft 283 kts 155°
2026-05-01 10:31 51.18348 17.30111 7989 ft 282 kts 155°
2026-05-01 10:31 51.14701 17.32224 7598 ft 281 kts 155°
2026-05-01 10:32 51.11059 17.34335 7192 ft 275 kts 155°
2026-05-01 10:32 51.09288 17.35355 7011 ft 265 kts 156°
2026-05-01 10:32 51.05922 17.37129 6614 ft 252 kts 166°
2026-05-01 10:33 51.02629 17.35924 6231 ft 250 kts 209°
2026-05-01 10:33 50.99740 17.33173 5738 ft 246 kts 219°
2026-05-01 10:34 50.98591 17.31220 5483 ft 240 kts 244°
2026-05-01 10:34 50.98211 17.28747 5238 ft 229 kts 277°
2026-05-01 10:34 50.98547 17.26406 4994 ft 221 kts 296°
2026-05-01 10:35 50.99881 17.22124 4507 ft 216 kts 301°
2026-05-01 10:35 51.00559 17.20047 4373 ft 213 kts 301°
2026-05-01 10:35 51.01163 17.18083 4324 ft 218 kts 299°
2026-05-01 10:35 51.01829 17.15868 4138 ft 214 kts 299°
2026-05-01 10:36 51.03085 17.11836 3650 ft 201 kts 300°
2026-05-01 10:36 51.03671 17.09997 3312 ft 195 kts 298°
2026-05-01 10:36 51.04210 17.08207 3128 ft 175 kts 298°
2026-05-01 10:37 51.04680 17.06554 2789 ft 164 kts 299°
2026-05-01 10:37 51.05881 17.02657 2197 ft 136 kts 300°
2026-05-01 10:38 51.06341 17.01194 1954 ft 140 kts 298°
2026-05-01 10:38 51.06753 16.99807 1783 ft 139 kts 300°
2026-05-01 10:38 51.07186 16.98509 1587 ft 140 kts 299°
2026-05-01 10:38 51.07592 16.97102 1414 ft 139 kts 297°
2026-05-01 10:39 51.08006 16.95763 1206 ft 140 kts 299°
2026-05-01 10:39 51.08428 16.94454 1044 ft 138 kts 298°
2026-05-01 10:39 51.08841 16.93166 843 ft 138 kts 298°
2026-05-01 10:39 51.09256 16.91846 697 ft 136 kts 298°
2026-05-01 10:40 51.09668 16.90507 548 ft 134 kts 298°
2026-05-01 10:40 51.10071 16.89219 409 ft 129 kts 297°
2026-05-01 10:40 51.10377 16.88226 401 ft 69 kts 296°
2026-05-01 10:40 51.10545 16.87682 405 ft 51 kts 296°
2026-05-01 10:41 51.10671 16.87271 406 ft 19 kts 297°
2026-05-01 10:41 51.10718 16.87254 405 ft 5 kts 21°
2026-05-01 10:41 51.10842 16.87345 403 ft 11 kts 26°
2026-05-01 10:42 51.10920 16.87400 403 ft 11 kts 29°
2026-05-01 10:42 51.10947 16.87504 401 ft 11 kts 97°
2026-05-01 10:42 51.10924 16.87607 401 ft 9 kts 116°
2026-05-01 10:42 51.10899 16.87682 401 ft 7 kts 119°
2026-05-01 10:43 51.10872 16.87759 400 ft 8 kts 119°
2026-05-01 10:43 51.10847 16.87835 400 ft 1 kts 93°
2026-05-01 10:43 51.10869 16.87861 400 ft 4 kts 22°
2026-05-01 10:43 51.10891 16.87878 400 ft 3 kts 27°
2026-05-01 10:44 51.10897 16.87882 400 ft 1 kts 25°
2026-05-01 10:44 51.10901 16.87885 400 ft 0 kts 25°